Temp
13 14 14 14 15 15 15 15 15 15 15 16 15 16 16 16 17 17 17 17 17 17 17 18 18 18 18 18 18 18 18 18 18 18 18 18 17 17 17 17 17 17 17 17 17 17 17 17 17 17 17 17 17 17 16 16 16 16 16 16 16 16 16 16 15 14 14 14 14 14 14 14 13 13 13 13 13 13 13 13 13 13 13 14 13
13 14 14 14 14 14 14 14 15 15 15 15 15 16 16 16 17 17 17 17 17 16 17 18 18 18 18 18 18 18 18 18 18 18 18 17 17 17 17 17 17 17 17 17 17 17 17 17 17 17 17 17 17 17 16 16 16 16 16 16 16 16 16 16 15 14 14 14 14 14 14 14 14 14 14 14 14 13 13 13 14 14 14 14 14
14 14 14 14 14 14 14 14 15 15 15 15 15 16 16 16 17 17 17 17 17 17 17 18 18 18 18 18 18 18 18 18 18 18 18 17 17 17 17 17 17 17 17 17 17 17 17 17 17 17 17 17 17 17 17 17 16 16 16 16 16 17 17 16 16 15 15 14 14 14 14 14 14 14 14 14 14 14 14 14 14 14 14 14 14
14 14 14 14 14 14 14 14 14 15 15 15 15 16 16 16 17 17 17 17 17 17 17 18 18 18 18 18 18 18 18 18 18 18 18 18 18 18 18 18 18 18 18 17 17 17 17 17 17 17 17 17 17 17 17 17 17 17 16 17 17 17 17 17 16 16 16 15 14 14 15 15 15 14 14 14 14 14 14 14 14 14 14 14 14
13 14 14 14 14 14 14 14 14 14 14 14 14 15 15 16 16 17 17 17 17 17 17 18 18 17 17 17 17 18 18 18 18 18 18 18 18 18 18 18 18 18 18 18 17 17 17 17 17 17 17 17 17 17 17 17 17 17 17 17 17 17 17 17 17 16 16 16 15 14 14 15 15 14 14 14 14 14 14 14 14 14 14 14 14
13 14 15 15 14 15 15 14 14 14 14 14 14 14 14 15 15 16 17 17 17 17 18 17 17 17 17 17 18 18 18 18 18 18 18 18 18 18 18 18 18 18 18 18 17 17 17 17 17 17 17 17 17 18 18 18 18 18 18 18 18 18 17 17 17 16 16 16 16 15 14 14 15 14 14 14 14 14 14 14 14 14 14 14 14
13 14 15 15 15 15 15 14 14 15 15 15 15 15 15 15 15 15 15 17 17 17 18 17 17 17 17 17 18 18 18 18 18 18 18 18 18 18 19 19 19 18 18 18 17 17 17 17 17 17 17 18 18 18 18 18 18 18 18 18 18 18 17 17 16 16 16 16 16 15 15 14 14 14 14 14 14 14 14 14 14 14 14 14 15
13 13 14 15 15 15 14 14 14 14 15 15 15 15 15 15 15 15 15 17 18 17 17 17 17 17 17 17 18 18 18 18 18 18 18 18 18 18 19 19 19 18 18 17 17 17 17 17 17 17 18 18 18 18 18 18 18 18 18 18 18 17 17 16 16 15 15 16 16 15 14 14 14 13 13 13 13 13 14 14 14 15 15 15 15
13 13 14 14 15 15 14 14 14 14 15 15 14 15 14 15 16 16 16 17 18 17 17 17 17 17 17 17 17 18 18 18 18 18 18 18 18 19 18 18 18 18 17 17 17 17 17 17 17 17 18 18 18 18 18 18 18 18 18 18 18 17 17 16 16 16 15 15 15 14 14 13 13 13 13 13 14 14 14 14 14 15 14 14 15
12 13 13 14 14 14 14 14 14 14 15 15 14 14 15 15 16 16 16 17 18 17 17 17 17 17 17 17 17 18 18 18 18 18 18 18 18 18 18 18 18 18 17 17 16 17 17 17 17 17 17 17 17 17 17 17 18 18 18 18 18 18 17 17 16 16 15 15 14 14 13 13 13 13 13 14 14 14 13 13 13 14 13 13 14
12 12 12 13 13 14 14 14 14 14 15 15 14 14 15 15 15 15 16 17 17 17 17 17 17 17 17 17 17 18 18 18 18 18 18 18 18 18 18 18 18 17 17 17 17 16 16 16 16 16 16 17 17 17 17 17 17 17 17 17 17 17 17 17 17 16 16 15 14 14 14 14 14 14 14 14 14 14 14 13 13 13 13 12 12
11 12 12 12 12 13 14 14 14 14 15 15 14 14 15 15 15 15 16 17 17 17 17 17 16 17 17 17 17 17 18 18 18 18 18 18 18 18 18 18 17 17 16 16 16 16 16 16 16 16 16 16 16 16 16 16 16 16 16 16 17 17 17 17 17 16 16 16 15 15 15 15 15 14 14 14 14 14 14 14 13 13 13 12 12
11 11 11 12 12 12 13 14 14 14 14 14 14 14 14 14 14 15 16 16 16 16 16 16 16 16 17 17 17 17 17 17 18 18 17 18 18 18 18 17 16 16 16 16 16 16 16 16 16 16 16 16 16 16 15 15 15 15 15 15 16 16 16 16 16 16 16 16 15 15 15 15 15 15 14 14 14 14 14 14 14 13 12 12 13
10 11 11 11 11 11 12 12 13 13 13 13 13 13 13 13 14 15 15 15 16 15 15 15 15 15 16 16 16 16 17 17 17 17 17 17 18 17 17 16 15 15 15 15 16 16 16 16 16 16 16 16 16 16 15 15 15 15 15 15 15 15 15 15 15 15 15 15 15 15 14 14 14 14 14 14 14 14 13 13 13 13 13 13 13
10 10 10 11 11 11 11 11 12 12 13 13 13 13 13 13 13 13 14 15 15 15 14 15 15 15 15 15 16 16 16 16 16 16 17 17 17 17 16 16 16 16 16 15 15 16 16 16 16 16 16 16 16 16 15 15 15 15 14 14 14 14 14 14 14 14 14 14 14 14 14 14 14 13 13 13 13 13 13 12 12 12 12 12 12
9 10 10 10 11 11 11 11 11 12 12 13 13 12 12 12 12 11 11 13 13 13 14 13 14 14 14 14 15 15 15 15 15 15 16 16 16 16 16 16 16 15 15 15 15 16 16 16 15 15 15 15 15 15 15 15 15 14 14 14 13 13 13 13 13 13 13 13 13 13 13 13 13 13 12 12 12 12 12 12 12 11 11 11 12
9 9 10 10 10 11 11 11 11 11 11 12 12 11 11 11 11 10 10 10 11 12 12 13 13 13 13 13 14 14 14 14 14 15 15 16 16 16 16 15 15 15 14 14 15 15 15 14 14 14 14 14 14 14 14 14 14 14 13 13 13 13 13 13 13 13 13 13 13 13 12 12 12 12 12 12 12 12 12 12 11 11 11 10 11
8 8 9 10 10 11 11 11 11 11 11 10 10 11 11 10 11 11 10 10 10 10 11 12 12 13 13 13 13 13 13 13 13 14 14 15 15 16 16 15 15 14 14 13 13 14 14 13 13 13 13 13 13 13 13 13 13 13 13 12 12 12 12 12 12 12 12 12 12 12 12 12 12 12 12 12 12 12 12 11 11 10 10 10 10
8 8 8 9 10 11 11 11 11 11 11 10 10 11 11 11 11 11 11 11 10 10 11 12 12 12 13 13 13 13 13 13 13 13 14 14 14 14 15 15 14 13 12 12 12 12 12 12 12 12 12 12 12 12 12 12 12 12 12 12 12 12 12 12 12 12 12 12 12 12 12 12 12 12 12 11 11 12 11 11 11 11 10 10 10
8 8 9 9 10 10 10 11 11 11 11 11 11 10 11 12 12 11 11 11 11 11 11 11 11 11 12 12 12 12 12 12 12 13 13 13 13 13 14 14 13 12 11 11 11 11 11 11 11 12 12 12 12 12 12 12 12 12 12 12 12 11 11 12 12 12 12 12 11 11 11 11 11 11 11 11 11 11 11 11 11 11 10 10 10
9 10 9 9 9 9 10 10 10 10 10 10 10 10 10 10 11 12 11 10 10 10 10 10 10 10 10 11 11 11 11 11 11 12 12 12 13 13 13 13 12 11 11 11 11 11 11 11 11 11 11 11 12 12 12 12 12 12 12 12 11 11 11 11 11 11 11 11 10 10 10 11 11 11 11 11 11 11 11 11 11 10 10 10 10
10 10 10 10 9 9 9 9 9 9 9 9 10 9 8 8 9 10 10 9 9 8 8 9 9 8 9 10 10 9 10 10 11 11 11 11 11 12 12 11 11 11 11 11 11 11 11 11 11 11 11 11 12 12 12 12 12 12 11 11 10 10 10 10 10 10 10 10 10 10 10 10 10 10 10 10 11 10 10 10 10 10 10 10 10
10 10 10 9 9 9 9 9 9 8 8 8 8 8 7 7 7 8 9 9 8 7 7 7 8 8 8 9 9 9 9 10 10 10 10 10 10 10 10 10 10 11 11 11 11 11 11 11 11 11 11 11 11 11 11 11 11 11 10 10 10 9 9 10 10 10 10 10 10 9 9 9 9 9 10 10 9 9 9 9 9 9 9 9 9
10 9 9 8 8 8 8 8 8 8 8 8 7 7 7 6 6 6 7 7 7 6 5 6 6 7 7 7 7 8 8 9 9 9 9 9 9 9 9 10 10 10 11 11 10 10 10 10 10 10 10 10 10 10 10 10 10 9 9 9 9 9 9 9 9 9 9 9 9 8 8 8 8 8 8 8 8 8 8 8 8 8 8 8 8
9 9 9 8 7 8 8 8 8 8 8 8 7 7 7 7 6 6 6 6 6 6 5 6 6 6 5 6 6 6 7 7 8 8 8 8 9 9 9 9 10 10 10 10 10 10 9 9 9 9 9 9 9 9 9 9 9 9 9 9 9 9 9 9 9 9 8 8 8 7 7 7 7 7 7 7 7 7 7 7 7 7 7 7 7
9 8 8 8 8 8 8 8 8 8 8 8 7 7 7 7 6 6 6 6 6 5 6 6 6 6 5 5 6 6 6 7 7 7 7 8 8 8 9 9 9 9 9 9 9 9 8 8 8 8 8 8 8 8 8 8 8 8 8 8 8 8 8 8 8 8 8 7 7 7 7 7 6 6 6 6 6 7 7 7 7 7 7 7 7
8 8 8 8 8 8 8 8 8 8 8 8 7 7 7 7 6 6 6 6 6 6 6 6 6 6 5 5 5 6 6 6 6 7 7 7 8 8 8 9 9 9 8 8 8 8 8 8 8 8 8 8 8 8 8 8 8 8 8 8 8 8 7 7 7 7 7 7 7 6 6 6 6 6 6 6 7 7 6 6 6 6 6 6 6
8 8 8 8 8 8 8 8 8 7 7 8 7 7 7 7 7 6 6 6 6 6 6 6 6 6 6 6 6 6 6 6 6 6 7 7 8 8 8 8 8 8 8 8 8 8 8 7 8 8 8 8 8 8 8 8 8 8 8 8 7 7 7 7 7 7 6 6 6 6 6 6 6 6 6 6 6 6 6 6 6 6 6 6 6
8 8 8 8 8 8 8 7 7 7 7 7 6 6 6 6 6 6 5 6 6 6 6 6 5 6 6 6 6 6 6 6 6 6 6 7 7 7 8 8 8 8 7 7 7 7 7 7 7 7 7 8 7 7 7 7 7 7 7 7 7 7 7 7 7 6 6 6 6 6 6 5 5 5 5 5 5 5 5 5 5 5 5 5 5
8 7 7 7 7 7 7 7 7 6 6 6 5 5 5 5 6 5 5 5 5 5 5 5 5 5 6 6 6 6 6 6 6 6 6 6 7 7 7 7 7 7 7 7 8 7 7 7 7 6 7 7 6 6 6 6 7 7 7 7 7 6 6 6 6 6 6 6 6 6 5 5 5 5 5 5 4 4 4 5 5 5 4 4 4
7 7 7 7 7 7 7 7 6 6 6 6 5 5 5 4 4 4 4 4 4 5 5 5 5 5 5 5 6 6 6 6 6 6 6 6 6 6 7 7 7 7 7 7 7 7 6 6 5 5 5 5 5 5 5 5 6 6 6 6 6 6 6 6 5 5 5 5 5 5 5 5 4 4 4 4 4 4 4 4 4 4 4 3 3
7 7 7 7 7 7 6 6 6 6 6 6 6 5 5 4 4 4 4 4 4 4 4 5 5 5 5 5 6 6 7 7 6 6 6 6 6 6 6 6 6 6 7 7 7 6 5 5 5 4 5 4 4 4 4 4 4 5 5 5 5 5 5 5 5 5 5 5 5 4 4 4 4 4 4 4 4 4 3 3 3 3 3 2 2
7 7 7 7 7 7 6 6 6 6 6 6 6 6 5 5 4 4 4 4 4 4 4 4 4 4 5 5 5 6 6 6 6 6 6 6 6 6 6 6 6 6 6 7 6 4 4 4 4 3 4 3 3 3 3 3 3 4 4 4 4 4 4 4 4 4 4 4 4 4 3 3 3 3 3 3 3 3 3 2 2 2 2 2 2
7 7 7 7 7 7 7 6 6 6 6 5 5 5 5 5 5 4 4 4 4 5 4 4 4 4 4 4 5 5 5 5 5 5 5 5 5 5 6 6 5 5 5 5 4 4 3 3 3 3 3 3 2 2 2 3 3 3 3 3 3 3 3 3 3 4 3 3 3 3 3 3 3 3 3 3 3 2 2 2 2 2 2 2 2
7 7 7 7 7 7 7 7 6 6 6 6 5 5 5 5 5 5 5 5 4 4 4 4 4 4 4 4 4 5 5 5 5 5 5 5 5 5 6 5 4 4 4 3 3 3 2 2 2 2 2 2 2 2 2 2 3 3 3 3 3 3 3 3 3 3 3 3 3 3 3 3 3 3 3 2 2 2 2 2 2 2 2 2 2
6 7 7 7 7 7 7 6 6 6 6 6 6 6 5 5 5 5 5 4 4 4 4 4 4 4 4 4 4 4 4 4 5 5 5 5 5 5 5 5 4 3 2 2 2 2 2 2 2 2 2 2 2 2 2 2 2 2 2 2 2 2 2 2 2 2 2 2 2 2 2 2 2 2 2 2 2 2 2 2 2 2 2 2 2
6 6 6 6 6 6 6 6 6 6 6 6 6 6 5 5 5 4 4 4 4 3 3 3 3 3 3 3 3 4 4 4 4 4 4 4 5 5 5 4 3 2 2 1 1 1 1 1 1 2 2 2 2 2 2 2 2 2 2 2 2 2 2 2 2 2 2 2 1 1 1 1 1 1 2 2 2 2 2 2 2 2 2 2 3
6 6 6 6 6 6 6 6 6 6 6 6 6 5 5 5 4 4 4 4 4 3 3 3 3 3 3 3 3 3 3 3 3 4 4 4 4 4 4 3 3 2 1 1 1 1 1 1 1 1 1 1 1 1 2 2 2 2 2 2 2 1 1 1 1 1 1 1 1 1 1 1 1 1 2 2 2 2 2 2 3 3 3 3 3
6 6 6 6 6 6 6 6 6 6 6 5 5 5 5 5 5 4 4 4 4 4 4 4 4 3 3 3 3 3 3 3 3 3 3 3 3 3 3 3 2 2 2 1 1 1 1 1 1 1 1 1 1 1 1 1 1 1 1 1 1 1 1 1 1 1 1 1 1 1 1 1 1 2 2 2 2 2 2 2 3 3 3 3 3
6 6 6 6 6 6 6 6 6 5 5 5 5 5 5 5 5 4 4 4 4 4 4 4 4 4 3 3 3 3 3 2 2 2 2 2 2 2 2 2 3 2 2 1 1 1 1 1 1 1 1 1 1 1 1 1 1 1 1 1 1 1 1 1 1 1 1 1 1 1 1 1 1 2 2 2 2 2 2 2 3 3 3 3 3
6 6 6 6 6 6 6 6 5 5 5 5 5 5 5 5 5 4 4 4 4 4 4 4 4 4 3 3 3 3 3 2 2 2 2 2 2 2 2 2 2 2 1 1 1 1 1 1 1 1 1 0 0 0 0 0 1 1 1 1 1 1 1 1 1 1 1 1 1 1 1 1 1 1 1 2 2 2 2 2 2 3 2 2 2
6 6 6 6 6 6 5 5 5 5 5 5 5 5 5 5 5 4 4 4 4 4 4 4 4 4 3 3 3 3 3 2 2 2 2 2 2 2 2 2 2 2 2 2 1 1 2 2 1 1 0 0 -0 -0 -0 0 0 1 1 1 1 1 1 1 1 1 1 1 1 1 1 1 1 1 1 1 2 2 2 2 2 2 2 2 2
5 5 5 5 5 5 5 5 5 5 5 5 5 5 5 5 5 4 4 4 3 4 4 4 4 3 3 3 3 3 3 2 2 2 2 2 2 2 2 2 2 2 2 2 2 1 1 1 1 1 1 0 0 0 0 0 0 0 1 1 1 1 1 1 1 1 1 1 1 1 1 1 1 1 1 2 2 2 2 2 2 2 2 2 2
5 5 5 5 5 5 5 5 5 5 5 5 5 5 5 5 5 4 4 4 3 3 4 4 4 3 3 3 3 3 3 3 3 3 3 3 3 3 3 3 2 2 2 2 2 1 1 1 1 1 1 1 1 1 0 0 0 0 0 0 1 1 1 1 1 1 1 1 1 1 1 1 1 2 2 2 2 2 2 2 2 2 2 2 2
5 5 5 5 5 5 5 5 5 5 5 5 5 5 5 5 5 5 4 4 3 3 3 4 3 3 3 3 3 3 3 3 3 3 3 3 3 3 3 2 2 2 2 2 2 1 1 1 1 1 1 1 1 1 1 1 1 0 0 0 0 0 0 0 1 1 1 1 1 1 1 1 1 1 2 2 2 2 2 2 2 2 2 2 2
5 5 5 5 5 5 5 5 5 5 5 5 5 5 5 5 5 4 4 4 4 3 3 3 4 3 3 3 3 3 3 3 3 3 3 3 3 2 2 2 2 2 2 2 2 1 1 1 1 1 1 1 1 1 1 1 1 0 0 0 0 0 0 0 0 0 0 0 0 1 1 1 1 1 1 1 2 2 2 2 2 2 2 2 2
4 4 5 5 5 5 5 5 5 5 5 5 5 5 5 5 5 5 4 4 4 4 3 3 3 4 3 3 3 3 3 3 3 3 3 3 2 2 2 2 2 2 2 1 1 1 1 1 1 1 1 1 1 1 1 1 0 0 0 0 0 0 0 0 0 0 0 0 0 0 0 1 1 1 1 1 1 1 1 1 1 1 1 1 1
4 4 5 5 5 5 5 5 5 5 5 5 4 4 5 5 5 5 4 4 4 4 4 4 4 3 3 4 4 3 3 3 3 3 3 3 2 2 2 2 2 2 1 1 1 1 1 1 1 1 1 1 1 1 1 0 0 0 0 -0 -0 -0 -0 -0 0 0 0 -0 -0 -0 0 0 0 0 1 1 1 1 1 1 1 1 1 1 1
4 4 4 5 5 5 5 5 5 5 5 5 5 5 5 4 5 5 5 5 4 4 4 4 4 4 3 3 3 4 3 3 3 3 3 3 2 2 2 2 1 1 1 1 1 1 1 1 1 1 1 1 1 1 1 0 0 -0 -0 -0 -0 -1 -1 -1 -0 -0 -0 -0 -0 -0 -0 -0 -0 -0 0 0 0 0 1 1 1 1 1 1 1
4 4 4 5 5 5 5 5 5 5 5 5 5 5 5 5 5 4 4 5 5 4 4 4 4 4 4 4 4 3 3 3 3 3 3 3 3 2 2 2 1 1 1 1 1 1 1 1 1 1 1 1 1 1 1 0 0 -0 -1 -1 -1 -1 -1 -1 -1 -1 -1 -1 -1 -1 -1 -1 -0 -0 -0 -0 0 0 0 0 0 0 1 1 1
5 4 4 5 5 5 5 5 5 5 5 5 5 5 5 5 5 5 5 5 5 5 5 5 5 5 4 4 4 4 4 4 4 3 3 3 3 2 2 2 2 1 1 1 1 1 1 1 0 0 1 1 1 1 1 0 0 -0 -1 -1 -1 -1 -1 -2 -2 -1 -1 -1 -1 -1 -1 -1 -1 -1 -1 -1 -0 -0 -0 -0 0 0 0 1 1
Height
778 776 775 775 776 775 775 775 776 779 781 783 785 787 788 790 791 793 795 797 799 802 804 805 806 808 809 811 812 813 814 815 816 818 818 819 820 821 822 823 824 825 826 827 828 829 830 831 832 833 834 835 836 837 838 839 841 842 844 845 846 847 848 849 851 852 853 854 855 856 857 858 858 859 859 860 861 862 862 863 864 865 865 866 867
777 776 775 776 776 776 776 777 778 779 781 783 785 786 788 790 791 792 794 795 798 803 805 805 807 809 810 811 813 814 815 816 817 818 819 820 820 821 822 823 824 825 826 827 828 829 830 830 831 833 834 835 835 837 838 839 841 843 844 845 846 847 848 849 851 852 853 854 855 856 856 857 858 858 859 860 861 862 862 863 864 864 865 866 866
777 776 776 776 776 777 777 778 779 781 782 782 784 786 787 789 791 792 794 794 796 802 806 807 808 809 810 812 813 814 816 817 818 819 819 820 820 821 822 823 824 825 826 827 828 828 829 830 831 832 833 834 835 836 837 838 840 842 844 845 845 846 848 849 850 851 852 853 854 855 855 856 857 858 859 860 861 861 862 863 863 864 864 865 865
778 777 777 777 778 778 778 780 782 782 783 783 784 785 787 789 791 792 794 795 796 801 806 807 808 809 810 811 813 814 816 817 818 819 820 820 821 821 822 823 824 825 826 827 827 828 829 830 831 832 833 834 835 836 837 838 840 841 843 844 845 846 847 848 850 851 851 852 853 854 854 855 856 857 858 859 860 861 861 862 863 863 864 864 865
780 778 777 778 779 780 780 781 783 784 785 785 786 787 788 790 791 793 794 795 797 801 805 806 808 809 810 811 812 814 815 817 818 819 820 821 821 822 822 823 824 825 826 826 827 828 829 830 831 832 833 834 835 836 836 838 839 840 841 842 843 844 846 847 849 850 851 851 852 853 854 855 856 856 857 858 859 860 860 861 861 862 862 863 863
782 779 777 777 779 780 780 780 781 783 784 786 788 790 791 792 793 794 795 795 798 801 804 806 807 808 809 810 812 813 815 817 818 820 821 821 822 822 823 823 824 825 825 826 827 828 829 830 831 832 833 834 835 836 836 837 838 839 840 841 842 843 845 846 847 849 850 850 851 852 853 854 854 855 856 857 858 859 859 860 860 860 861 861 861
782 779 777 777 777 778 780 781 781 782 783 785 787 789 791 794 795 797 798 797 799 802 804 805 807 808 809 810 812 813 815 817 818 820 820 821 822 822 822 823 824 824 825 826 827 828 829 830 831 832 833 834 835 836 837 837 838 838 839 840 841 843 844 845 846 848 849 850 851 851 852 853 854 855 856 856 858 858 858 859 858 858 859 859 859
781 779 777 776 776 777 779 781 782 782 783 784 785 787 790 793 795 798 800 799 800 803 804 805 806 807 808 810 811 813 815 817 818 819 820 821 821 822 822 823 824 825 826 827 827 829 829 830 832 833 834 835 836 837 837 837 838 838 839 839 841 842 843 845 846 847 848 849 850 851 851 852 853 854 855 856 856 856 856 857 856 856 858 858 858
781 779 778 777 776 777 779 781 781 782 784 785 786 788 790 793 795 798 801 801 802 804 805 805 806 807 808 809 811 813 815 817 818 819 820 820 821 821 822 823 824 825 826 827 828 829 830 831 833 834 835 836 837 838 838 838 838 839 839 840 841 842 843 844 845 846 848 849 849 850 851 851 852 853 853 854 854 853 854 856 855 855 857 857 857
782 780 779 779 778 778 779 780 780 782 782 784 787 789 791 793 796 798 801 802 802 804 805 806 806 807 808 809 811 813 815 817 818 819 820 820 821 821 822 823 825 826 827 828 829 830 831 833 834 835 836 837 838 839 839 839 840 840 841 841 842 843 843 844 845 846 847 848 848 849 850 851 851 852 852 852 853 853 854 855 855 855 856 856 854
784 782 781 780 779 779 779 778 779 781 783 785 788 790 791 794 796 798 800 801 802 803 804 806 807 807 809 810 812 814 815 817 818 819 820 820 821 822 823 824 825 827 828 829 830 832 833 834 835 836 837 838 839 839 840 840 841 841 842 842 842 843 843 844 845 845 846 847 847 848 849 849 850 851 851 852 853 853 853 854 854 854 855 854 853
786 785 783 782 781 780 779 779 780 782 783 786 789 791 792 794 796 798 798 799 801 803 804 805 807 808 809 810 812 814 816 817 818 819 820 821 822 822 823 825 826 828 829 830 831 833 834 835 836 836 837 838 839 840 840 841 842 842 842 843 843 843 843 844 844 845 845 846 846 847 847 848 849 849 850 851 851 851 852 852 852 852 852 853 851
789 787 786 784 783 782 781 781 781 783 784 787 790 792 793 795 796 797 798 799 801 803 804 805 807 808 809 811 813 814 816 817 818 819 820 821 822 823 824 825 827 828 830 831 832 833 834 835 836 837 837 838 838 839 841 842 842 842 842 843 843 843 843 844 844 845 846 846 846 846 847 847 848 848 848 848 849 849 850 850 850 850 851 851 849
791 790 789 787 786 785 783 783 783 784 786 788 791 792 793 795 796 796 798 799 801 803 804 805 807 808 810 811 813 815 816 818 819 820 821 822 823 824 825 827 828 829 831 832 833 834 834 835 836 837 838 838 839 840 841 841 842 843 843 843 844 844 844 844 844 845 846 846 846 847 847 847 847 847 848 848 848 848 849 849 849 849 850 849 849
794 793 792 790 789 788 786 786 786 787 788 788 791 793 794 795 796 797 798 799 802 803 805 806 807 809 811 812 813 815 817 818 820 821 822 823 823 824 826 828 829 830 831 833 834 835 835 835 837 837 838 839 839 840 841 841 842 842 843 843 844 844 844 845 845 845 846 846 846 847 847 847 847 847 847 847 847 848 848 848 848 849 849 849 848
797 796 795 794 793 791 790 789 789 790 790 790 792 794 795 795 797 799 800 800 802 804 805 807 809 810 812 813 813 815 817 819 821 822 823 823 824 825 827 828 830 831 832 833 834 835 835 836 837 838 839 839 840 840 841 841 842 842 843 844 844 844 845 845 845 846 846 846 846 846 846 846 846 846 846 847 847 847 847 847 848 848 849 848 847
802 800 798 797 796 795 794 793 793 793 793 793 794 796 798 797 798 801 803 802 804 806 807 809 811 812 813 814 815 816 818 820 822 824 824 824 824 825 826 827 830 832 834 834 834 835 836 837 838 838 839 839 840 840 841 841 841 842 843 844 844 844 844 845 845 845 845 846 845 846 846 846 846 846 846 846 846 846 846 846 846 847 847 847 846
806 804 802 801 800 799 798 797 797 797 797 797 797 797 799 800 801 804 805 805 806 809 810 810 812 814 815 817 818 819 820 822 824 825 825 826 826 825 826 827 829 831 834 835 835 835 836 838 838 839 839 839 840 840 841 841 841 842 842 843 843 844 844 844 844 844 844 845 845 845 845 845 845 845 845 844 844 844 844 844 845 845 845 846 845
810 808 806 805 803 802 802 801 801 801 801 802 801 799 801 803 804 806 808 808 810 812 813 812 813 816 818 820 821 822 823 825 826 826 826 827 827 826 826 827 828 830 833 834 834 836 837 838 839 839 839 839 840 840 841 841 841 841 842 842 843 844 844 844 843 843 843 843 844 844 844 844 844 844 844 843 843 843 843 844 844 844 844 844 845
814 812 810 808 807 806 805 805 805 804 804 805 805 804 804 805 807 808 810 812 813 814 815 816 816 817 820 822 823 824 825 827 828 828 828 828 828 828 828 828 829 831 832 833 834 836 837 838 839 839 839 839 840 840 841 841 841 841 842 842 842 844 844 844 843 843 842 842 843 843 843 843 843 843 843 842 842 842 842 843 843 843 844 844 844
817 815 814 812 811 810 809 808 808 808 808 808 807 807 807 808 808 810 812 815 816 816 817 818 818 820 822 824 825 826 827 827 828 828 829 829 829 829 829 830 831 831 832 833 835 836 837 838 839 839 839 839 840 841 842 842 842 842 842 842 843 844 844 844 843 843 842 842 842 842 843 842 842 842 842 842 842 842 842 842 843 843 843 843 843
820 819 817 816 814 814 813 812 811 811 811 810 809 810 811 811 810 811 814 817 818 818 819 821 822 823 824 825 827 828 828 828 828 830 831 831 831 831 831 832 833 833 833 834 835 836 837 838 838 839 839 840 841 842 842 842 842 842 842 842 843 843 844 843 843 843 842 842 842 842 842 842 842 842 842 842 842 842 842 842 842 842 843 843 843
823 822 820 819 818 817 816 816 814 814 814 813 812 813 814 814 813 814 816 818 819 820 822 824 824 824 825 826 827 829 829 830 831 832 833 833 833 833 834 834 835 835 834 834 835 836 837 838 838 839 840 840 841 842 842 842 842 842 842 843 843 843 843 843 843 843 842 842 842 842 842 842 842 842 842 842 842 842 842 842 842 842 843 843 843
826 825 823 822 822 821 820 819 818 818 818 817 816 817 818 818 818 818 819 820 821 822 825 826 825 825 827 828 830 832 833 833 834 834 834 835 835 835 836 836 836 836 835 836 836 837 838 838 839 839 840 840 841 841 842 842 842 843 843 843 844 844 844 844 844 843 843 843 842 842 842 842 842 842 842 842 842 843 843 843 843 843 843 843 843
829 828 827 826 825 824 824 823 822 822 822 821 821 821 822 822 822 823 824 824 824 826 827 828 829 829 831 832 833 835 835 835 836 836 836 837 837 837 837 837 837 837 837 837 838 838 839 839 839 840 841 841 841 842 842 843 844 844 844 845 845 845 844 844 844 843 843 843 843 843 843 843 843 843 843 843 844 844 844 844 844 844 844 844 844
832 832 831 830 829 828 827 827 826 826 826 825 825 826 826 826 827 828 829 829 830 830 831 831 832 833 834 835 835 837 838 838 839 839 838 839 838 838 838 838 838 838 838 839 839 840 840 840 840 841 841 842 843 843 844 844 845 845 846 845 845 845 845 845 845 844 844 844 844 844 844 844 844 844 844 844 845 845 845 846 845 845 845 845 845
836 836 835 834 834 833 832 831 830 830 830 830 830 830 831 831 831 832 833 834 834 835 835 835 835 836 837 838 838 839 840 840 841 841 840 840 840 840 840 839 839 840 840 841 841 841 841 841 841 842 842 843 844 844 845 845 846 846 846 846 846 846 846 846 845 845 845 845 845 845 845 845 845 845 845 845 845 846 846 846 846 846 846 846 846
840 840 840 839 838 837 836 836 835 835 834 834 834 835 835 835 835 836 837 838 838 838 838 838 839 840 840 841 841 841 841 842 842 842 842 842 841 841 841 840 841 841 841 841 842 841 842 842 842 843 844 844 845 845 846 846 847 847 847 847 847 847 847 846 846 846 846 846 846 846 846 846 846 846 846 846 846 846 847 847 847 847 846 846 846
843 843 843 843 842 842 841 840 840 840 839 838 838 839 840 840 839 840 840 841 841 841 841 841 841 842 843 843 843 843 842 843 843 843 843 842 842 842 841 842 842 842 842 842 842 842 843 843 844 844 845 845 846 846 847 848 848 848 848 848 848 848 848 847 847 847 847 847 847 847 847 847 847 847 847 847 847 847 847 847 847 847 847 847 847
846 846 847 846 846 846 845 845 845 844 843 843 843 843 844 844 844 843 844 844 844 844 844 844 844 844 844 844 844 844 844 844 844 843 843 843 843 843 843 843 843 843 843 844 844 844 844 845 845 846 846 846 847 847 848 848 848 848 849 849 849 849 848 848 848 848 849 849 849 849 849 848 848 848 848 848 848 849 848 848 848 848 848 848 848
848 848 849 849 849 849 849 849 849 848 848 848 848 847 847 848 848 847 847 847 847 847 847 847 847 846 846 846 845 845 844 844 844 844 844 844 844 844 844 845 845 845 845 845 845 845 845 846 846 847 847 847 848 848 849 849 849 849 849 849 849 849 849 849 850 850 850 850 850 850 850 850 850 850 850 850 850 850 850 850 849 849 849 849 849
849 850 850 851 851 851 851 852 852 852 852 852 851 851 851 850 851 851 851 851 851 850 850 849 849 848 848 847 846 846 845 844 844 845 845 845 846 846 846 846 846 847 847 846 846 846 847 847 847 848 848 848 849 849 850 850 850 850 850 850 850 850 850 850 851 851 851 851 851 851 851 851 851 851 851 851 851 851 851 851 850 850 850 850 850
851 852 852 852 852 853 853 854 854 855 855 855 854 854 854 853 853 854 854 854 853 853 852 851 851 851 850 849 848 847 846 845 845 846 846 847 847 847 847 847 848 848 848 847 847 847 848 848 848 849 849 849 850 851 851 851 851 851 851 851 851 851 851 852 852 852 852 852 852 852 852 852 852 852 852 852 852 852 852 852 852 852 851 851 851
853 854 854 854 854 854 855 855 856 856 856 856 856 856 856 856 856 856 856 855 855 854 853 853 853 853 852 851 850 849 848 847 847 848 848 848 848 848 848 848 848 849 848 848 848 849 849 849 850 850 851 851 852 852 852 852 852 852 852 852 852 852 853 853 853 852 852 852 852 852 852 853 853 853 853 853 853 853 853 853 853 853 852 852 851
856 856 856 856 856 856 856 857 857 858 858 857 857 858 858 858 858 857 857 857 856 855 855 855 854 854 854 853 852 852 851 850 850 850 850 850 850 850 850 850 850 850 850 850 850 850 851 851 851 851 852 852 853 853 853 853 853 853 853 854 854 854 854 853 853 853 853 853 853 853 854 854 854 854 855 855 854 854 854 854 853 853 853 853 852
858 858 858 858 858 858 858 858 859 859 859 859 859 859 859 859 859 859 858 858 857 857 856 856 856 855 855 855 854 854 853 853 852 852 852 852 852 852 851 851 850 851 851 851 852 852 852 852 852 853 853 854 854 855 855 855 855 855 855 855 854 854 854 854 854 854 854 855 855 855 856 856 856 856 856 855 855 855 855 855 855 854 854 854 853
860 860 860 860 860 860 860 860 860 860 860 860 860 860 860 861 861 860 860 859 859 858 858 857 857 857 856 856 856 855 855 855 854 854 854 853 853 852 852 851 851 851 852 852 853 853 853 854 854 854 855 856 856 856 856 856 856 856 856 855 855 855 855 856 856 856 856 857 857 857 857 857 857 857 856 856 856 856 856 856 856 855 855 855 855
862 862 862 862 862 862 862 862 862 862 862 862 862 862 862 862 862 861 861 861 860 860 859 859 858 858 857 857 857 856 856 856 855 855 855 854 854 853 852 852 852 852 853 854 855 855 855 855 856 857 857 857 858 857 857 857 857 857 857 857 857 857 857 858 858 858 858 858 858 858 858 858 857 857 857 857 857 857 857 857 857 856 856 856 855
864 864 864 864 864 864 863 863 863 863 863 864 863 863 863 863 863 863 862 862 861 861 860 860 860 859 859 858 858 857 857 857 856 856 856 855 855 854 854 854 854 854 855 856 857 857 857 858 858 858 858 858 858 858 858 858 858 858 858 858 858 859 859 859 859 859 859 859 859 858 858 858 858 858 858 858 858 858 858 858 858 857 856 856 855
865 865 865 865 865 865 865 865 865 865 865 865 865 865 865 864 864 864 863 863 863 862 861 861 861 860 860 860 859 859 858 858 858 858 858 857 857 857 856 856 857 857 858 859 859 860 860 859 859 859 858 859 859 859 859 860 860 860 860 859 859 859 859 859 859 859 859 859 859 859 859 860 860 860 860 860 860 859 859 859 859 858 857 857 857
867 867 867 867 867 867 867 866 866 866 866 866 866 866 866 865 865 865 865 864 864 863 863 862 862 861 861 861 861 861 860 860 860 860 860 859 859 859 859 859 860 860 861 861 862 861 861 860 860 860 860 860 860 861 860 860 860 860 860 860 860 860 860 860 860 860 860 860 860 860 861 861 861 861 861 861 861 861 860 860 860 859 859 859 858
868 868 868 868 868 868 868 868 867 867 867 867 867 867 867 866 866 866 866 865 865 864 864 863 863 863 863 863 863 863 862 862 862 862 861 861 861 861 862 862 862 863 863 863 863 862 862 861 861 861 861 861 861 861 861 861 861 861 860 860 860 860 860 860 860 861 861 861 861 861 861 861 861 862 862 861 861 861 861 861 861 860 860 860 859
869 869 869 869 869 869 869 869 869 869 868 868 868 867 867 867 867 867 867 866 866 865 865 865 865 865 865 865 865 864 864 863 863 863 863 863 863 863 863 864 864 864 864 864 863 863 863 863 863 863 863 862 862 861 861 861 861 861 860 860 860 860 861 861 861 862 862 862 862 862 862 862 862 862 862 862 862 862 862 861 861 861 861 861 860
870 870 870 870 870 870 870 870 870 869 869 869 868 867 867 867 867 867 867 867 867 866 866 866 866 866 866 866 866 866 865 865 865 865 865 865 865 865 865 864 864 864 864 864 864 864 865 865 864 863 863 862 862 862 861 861 860 860 860 860 861 861 862 862 862 862 863 863 863 863 863 863 863 863 863 862 862 862 862 862 862 861 861 861 861
871 871 870 870 870 870 871 870 870 870 870 869 869 868 867 867 867 867 867 867 867 867 867 867 867 867 867 867 867 867 867 866 866 866 866 866 866 866 865 865 865 865 865 865 865 865 865 865 864 863 863 863 862 862 861 861 861 861 861 861 862 862 862 863 863 863 863 863 863 863 864 864 863 863 863 863 863 862 862 862 862 862 861 861 861
871 871 871 871 871 871 871 871 870 870 870 870 869 869 868 867 867 867 867 867 868 868 867 867 867 867 867 868 868 867 867 867 867 867 867 867 866 866 866 866 866 866 866 866 865 865 865 864 864 863 863 863 862 862 861 861 861 861 862 862 862 863 863 863 863 863 863 864 864 864 864 864 864 864 864 864 863 863 863 862 862 862 861 861 861
871 871 871 871 871 871 871 870 870 870 870 870 869 869 868 868 868 867 867 867 868 868 868 868 867 867 867 867 867 867 867 867 868 868 868 867 867 867 867 866 866 866 866 865 865 865 864 864 864 863 863 863 862 862 861 861 862 862 862 862 863 863 863 863 863 863 863 864 864 864 864 864 864 864 864 864 864 863 863 863 862 862 862 861 861
871 871 871 871 871 871 871 870 870 870 870 869 869 869 868 868 868 867 867 867 867 867 867 867 867 867 867 867 867 867 867 867 868 868 868 868 867 867 867 867 866 866 866 865 865 865 864 864 864 863 863 862 862 862 861 861 862 862 862 862 862 862 863 863 863 863 863 863 864 864 864 864 864 864 864 864 864 863 863 863 862 862 862 861 861
872 871 871 871 871 871 871 870 870 870 869 869 868 868 868 868 867 867 867 867 866 866 866 866 866 866 867 867 866 866 866 867 867 867 867 867 867 867 867 866 866 866 866 865 865 865 864 864 863 863 862 862 862 861 861 861 862 862 862 862 862 862 862 862 862 862 863 863 863 863 863 863 863 863 863 863 863 863 863 863 862 862 862 861 860
871 871 871 871 871 870 870 870 870 869 869 868 868 867 867 867 867 866 866 866 865 865 865 865 865 865 865 866 866 866 866 866 866 866 866 866 866 866 866 866 866 866 865 865 865 864 864 864 863 862 862 862 861 861 861 861 862 862 861 861 861 861 861 861 862 862 862 862 863 863 863 863 863 863 863 863 863 863 863 862 862 862 861 861 860
871 871 871 871 870 870 870 870 869 869 869 868 867 867 866 866 865 865 865 865 864 864 863 863 863 863 864 864 864 864 865 865 865 865 865 865 865 866 866 865 865 865 865 864 864 864 864 863 863 862 862 862 861 861 861 861 861 861 861 861 860 860 860 861 861 861 862 862 862 862 863 863 863 863 863 863 863 863 862 862 862 861 861 860 860
Wind_Speed
15 16 19 20 19 18 19 20 21 22 22 21 21 20 20 20 20 20 20 21 20 19 19 20 19 18 18 17 17 16 15 16 17 17 15 14 13 13 13 12 11 10 10 11 11 11 12 12 10 10 10 10 10 9 9 10 12 16 19 20 19 15 12 10 6 7 10 12 12 11 10 10 11 11 12 12 12 12 12 11 11 11 12 12 12
9 9 12 16 15 14 16 17 18 19 21 20 20 20 21 21 21 21 23 23 21 18 19 20 21 21 19 18 17 16 15 15 16 16 15 14 13 13 13 12 12 11 10 10 10 10 11 11 10 10 10 9 9 9 8 9 11 15 19 20 20 18 16 12 9 9 11 12 13 13 12 12 13 13 13 13 13 13 13 13 13 13 12 13 13
10 7 7 11 12 11 12 15 17 18 19 19 18 19 21 21 21 23 25 24 22 20 20 21 21 20 18 17 16 15 15 15 15 15 15 15 14 14 13 12 11 11 11 10 10 10 10 10 10 10 9 8 8 8 7 9 11 14 19 21 20 20 18 16 12 11 13 14 15 15 14 13 14 14 14 14 13 14 14 14 14 14 14 14 14
16 11 9 8 6 6 8 11 15 16 17 18 18 19 21 23 22 24 25 24 23 23 21 20 19 17 16 16 16 16 17 15 15 16 16 15 14 13 12 11 11 11 10 10 10 10 10 10 10 8 8 9 8 8 7 7 9 14 18 20 20 21 20 19 17 14 14 15 16 16 15 14 14 14 14 15 15 16 16 15 15 15 15 16 16
18 16 12 8 5 4 4 8 12 12 12 12 13 16 18 21 23 24 24 24 23 23 22 20 17 15 16 16 16 17 17 16 16 16 14 12 11 11 11 10 10 10 10 9 8 9 9 9 10 8 8 9 7 7 9 9 10 14 17 18 19 20 21 21 21 18 16 16 16 16 16 15 14 15 16 17 17 18 18 17 17 17 17 18 18
15 15 13 9 5 6 5 8 12 12 11 8 8 10 13 16 20 22 23 24 23 23 21 19 17 17 17 16 15 17 17 17 16 14 13 11 11 11 11 10 10 11 11 9 8 9 9 9 9 8 8 8 7 7 9 10 11 11 13 16 18 20 21 22 22 21 18 16 15 16 17 18 17 17 17 18 19 20 20 19 20 19 19 20 20
12 11 12 9 5 6 5 6 10 13 13 12 12 13 15 17 19 19 21 24 23 21 20 19 19 19 18 16 16 17 18 17 15 13 11 10 10 10 10 11 12 11 11 10 9 8 10 10 9 8 8 8 9 9 8 8 7 5 5 9 14 16 18 19 21 21 18 15 15 15 16 18 19 18 17 18 19 20 21 21 22 22 22 22 23
10 7 8 8 6 4 3 5 10 13 13 14 16 18 18 20 21 20 20 22 21 19 19 20 21 20 18 17 17 17 17 16 15 13 11 9 9 9 11 13 13 11 10 9 8 8 9 10 10 10 10 10 10 10 8 7 6 5 4 3 6 10 13 15 17 17 17 16 17 16 16 17 18 17 16 16 18 21 23 23 24 24 23 23 24
9 5 5 6 6 4 3 7 11 13 14 16 18 20 21 22 23 21 21 21 19 18 19 21 21 20 19 18 17 17 16 15 15 14 11 10 9 9 13 15 14 12 11 10 10 12 12 12 13 13 12 12 10 9 8 7 6 6 6 4 4 4 6 9 12 13 15 16 15 14 13 15 16 17 16 18 21 23 22 22 25 26 24 24 26
10 5 3 4 4 4 5 9 13 14 17 18 18 20 22 21 22 21 21 21 21 20 20 20 20 19 18 18 17 17 16 15 15 15 12 11 10 10 14 18 16 13 14 15 16 16 16 16 15 14 12 11 9 8 8 7 6 5 5 4 4 3 3 5 6 9 13 14 13 12 12 13 15 17 19 20 22 21 19 20 23 25 23 22 25
15 11 6 1 4 7 9 12 15 15 18 19 17 17 20 20 19 20 21 22 21 20 21 20 19 18 18 18 17 16 16 15 15 15 13 12 13 13 16 18 17 16 17 18 18 18 17 16 15 13 11 9 8 7 6 5 5 5 4 3 3 3 4 5 5 6 8 9 10 10 11 13 14 16 18 20 21 21 22 22 22 23 22 20 21
19 16 10 5 2 7 11 14 15 16 19 20 18 18 20 19 18 19 20 21 19 18 20 20 19 18 18 17 16 15 15 14 14 14 14 15 15 16 17 18 19 20 20 19 18 16 15 12 10 8 8 7 6 6 5 4 4 4 3 3 4 4 5 6 7 7 7 7 8 8 9 9 10 11 13 16 19 22 24 25 25 25 23 22 22
21 19 15 11 6 5 10 13 14 15 18 19 20 20 19 18 19 20 20 20 20 19 20 20 20 19 18 17 15 14 14 14 15 16 18 19 18 18 19 20 21 21 19 17 15 12 10 7 4 4 4 4 3 3 3 3 3 3 2 2 3 4 5 5 6 6 6 6 6 6 6 6 6 6 7 11 16 19 22 24 26 26 25 25 27
22 22 20 17 12 9 9 11 12 13 15 15 15 17 16 16 20 22 21 21 21 21 21 21 21 20 19 18 17 17 18 17 18 19 20 20 20 20 21 21 20 18 15 12 10 8 7 5 4 3 2 2 1 1 1 1 1 1 1 1 2 3 3 4 4 3 3 3 2 2 2 4 5 5 6 10 13 16 18 19 21 23 24 25 27
24 23 22 20 17 14 13 12 12 13 15 15 15 14 15 17 19 21 23 24 24 23 24 23 23 22 22 22 22 21 21 21 21 21 21 21 21 22 21 19 16 14 11 9 7 7 6 5 4 2 1 1 2 3 3 3 3 2 2 2 3 3 3 3 3 3 2 2 2 2 2 4 6 6 7 10 11 12 13 14 15 16 17 19 22
24 23 22 21 20 18 16 15 14 15 16 16 17 17 18 20 20 20 23 25 26 26 26 24 24 24 24 24 26 25 24 23 23 22 22 22 22 21 18 15 13 12 12 11 9 9 8 6 4 3 2 2 1 2 4 4 3 2 2 3 3 2 2 2 2 2 2 2 2 2 3 4 5 6 7 8 9 10 11 13 13 11 11 13 17
24 23 21 20 19 19 18 18 18 18 19 19 20 21 20 22 23 22 23 27 27 27 27 26 24 23 22 22 22 23 21 21 21 20 18 18 19 18 15 14 13 11 10 11 11 10 9 7 6 5 3 2 1 0 2 2 2 1 1 2 3 3 2 1 1 2 3 3 3 3 3 4 4 5 6 7 9 10 11 12 12 11 9 9 10
24 23 21 19 17 18 18 18 19 21 21 21 23 25 24 24 25 25 26 28 28 27 28 27 24 21 20 18 17 16 15 14 14 16 14 12 14 15 14 14 15 13 11 12 12 11 10 8 6 4 3 1 1 1 1 0 1 1 2 2 2 3 3 3 3 4 4 4 3 3 4 4 4 5 6 7 9 10 11 11 11 11 11 9 8
23 22 20 18 16 16 16 16 17 19 20 19 21 26 28 27 26 25 26 28 27 26 26 26 25 21 18 15 13 13 12 10 9 10 11 10 10 12 13 15 17 17 15 14 12 11 10 8 6 5 4 3 3 3 2 2 2 2 3 3 4 5 5 5 5 5 5 4 4 4 4 5 5 6 6 7 9 10 11 11 11 11 11 11 10
22 22 20 19 17 15 16 16 15 16 17 16 18 22 25 26 25 25 25 26 26 25 23 23 23 22 18 15 13 13 13 11 9 8 9 10 8 9 12 15 17 18 16 15 14 12 11 10 8 8 7 7 6 6 5 4 4 4 4 4 4 5 5 5 6 6 6 5 4 4 5 6 7 7 7 8 9 11 12 12 12 11 10 11 10
21 21 21 20 19 16 16 16 16 16 16 15 16 18 21 23 24 24 24 24 24 25 24 22 23 23 20 18 17 16 14 13 11 8 8 10 10 10 12 14 16 17 16 14 13 12 11 9 9 8 7 7 6 5 5 5 5 5 5 5 5 5 5 6 6 6 6 6 5 4 4 5 6 6 7 8 9 10 11 11 11 11 11 10 10
20 20 21 21 21 19 17 16 16 17 16 16 17 17 19 21 24 25 25 24 24 24 24 23 24 23 21 19 18 17 16 14 12 10 8 8 9 10 12 13 13 13 14 13 11 10 9 8 7 7 6 5 5 4 4 4 4 4 5 6 7 7 7 7 7 7 8 8 8 8 8 7 7 7 7 7 7 9 10 10 10 11 10 9 8
20 21 21 21 20 20 20 19 18 19 18 18 20 20 20 21 24 25 24 24 25 25 24 23 23 23 21 20 18 16 15 14 12 11 10 10 10 10 12 12 11 9 10 11 10 9 8 6 5 5 5 5 5 5 5 5 6 7 9 10 10 10 10 10 9 9 10 11 11 11 11 10 9 8 6 5 5 6 7 8 7 7 7 6 6
19 20 21 21 21 20 21 21 21 21 21 21 22 23 22 22 23 23 23 24 25 24 22 22 23 23 21 20 17 15 14 13 11 10 10 9 9 10 10 10 9 7 8 9 9 8 7 6 6 6 7 8 8 9 9 9 10 12 12 13 12 12 12 12 13 14 15 16 15 14 13 12 10 9 8 6 5 4 4 3 3 4 4 5 6
18 20 20 21 22 21 21 22 22 22 22 23 24 23 22 23 23 22 22 23 24 24 22 21 22 22 20 18 17 14 13 12 11 9 8 7 7 7 6 6 6 6 6 7 8 7 8 8 9 9 10 11 12 12 13 13 14 14 13 12 12 12 13 13 14 16 17 17 16 15 14 14 12 11 10 8 5 4 4 5 5 6 6 6 5
19 19 20 21 22 23 23 23 23 22 22 22 23 22 22 23 23 23 22 23 23 23 22 21 20 19 17 16 14 12 11 10 9 8 7 6 6 6 5 5 5 5 6 7 8 9 10 10 11 12 13 13 13 14 14 14 13 12 12 11 11 12 12 13 13 15 15 15 14 14 13 12 11 10 9 7 5 4 4 5 4 4 5 5 4
21 20 20 20 21 22 24 25 25 24 24 23 23 22 21 21 22 21 21 21 21 20 20 19 18 17 15 14 12 11 10 9 8 8 7 6 6 5 5 5 6 7 8 10 11 12 12 13 13 14 14 14 13 13 13 12 11 10 10 10 10 11 11 11 12 13 13 13 12 12 11 9 8 8 7 5 4 3 3 3 4 4 4 4 4
22 22 21 20 20 21 22 23 24 25 25 25 24 23 21 20 20 20 18 17 16 16 16 16 15 14 13 12 11 10 10 9 9 9 9 8 7 6 7 8 10 11 13 14 15 15 15 15 15 15 14 14 13 13 12 11 10 10 9 9 9 9 9 10 10 11 12 12 11 11 11 9 8 8 6 5 3 3 4 5 5 5 5 4 5
21 22 22 22 22 21 21 22 22 23 24 25 24 23 21 20 20 19 17 15 14 14 13 14 13 11 10 9 9 8 8 8 9 9 9 9 8 8 10 12 13 14 15 16 16 16 16 16 16 15 14 14 14 14 13 12 12 11 10 9 8 8 8 8 8 10 11 11 10 10 10 9 9 8 7 6 5 5 5 5 5 5 6 5 6
19 20 20 21 21 21 22 22 22 23 24 25 25 24 22 20 20 19 18 16 15 15 15 14 12 10 9 9 8 7 7 7 8 8 8 9 9 11 13 14 14 15 15 14 14 15 15 16 16 15 14 14 13 13 12 11 10 10 9 8 7 7 7 7 8 9 10 10 10 9 9 8 8 7 6 6 6 5 5 5 5 5 6 6 6
16 16 17 18 18 19 20 20 21 21 22 22 22 23 22 21 20 19 19 17 16 15 15 14 13 12 11 10 9 8 6 5 6 7 8 10 12 14 15 14 13 13 11 9 10 14 15 15 15 14 13 13 13 12 10 9 8 7 7 6 6 6 6 7 7 8 8 8 8 7 7 8 7 6 6 7 7 6 6 6 6 6 6 7 7
14 14 14 14 15 15 16 16 16 17 17 18 18 19 19 19 19 18 17 16 15 14 14 13 13 13 12 12 11 9 6 4 6 7 9 12 13 14 13 12 11 9 5 4 9 14 14 13 14 13 12 13 13 12 10 9 8 7 6 6 6 7 7 7 6 6 5 6 6 6 7 8 7 6 6 6 6 5 5 6 7 7 6 7 8
13 12 12 12 12 12 12 12 12 13 13 13 13 14 15 17 17 16 14 13 12 12 12 12 12 12 13 13 13 12 9 6 9 12 13 14 13 13 12 11 9 6 2 3 10 14 13 13 14 13 12 13 13 11 10 9 8 7 6 7 7 7 7 7 6 5 5 6 7 7 8 7 6 6 6 5 5 6 6 7 7 7 7 8 8
14 13 12 11 11 10 10 9 10 10 10 10 10 10 12 13 14 13 12 10 10 10 10 10 10 11 12 13 12 11 10 10 13 16 16 14 13 11 10 9 8 6 5 7 12 14 14 14 15 14 13 13 12 11 11 10 9 8 8 8 8 7 7 6 6 7 7 8 9 9 9 8 6 5 5 6 6 6 7 8 7 8 8 10 10
14 13 12 12 11 11 10 10 10 10 9 8 7 7 9 11 12 11 10 8 8 8 8 9 8 9 10 11 10 9 10 11 13 14 14 13 12 9 7 8 11 11 12 13 14 14 14 14 14 13 12 12 11 11 11 11 9 9 8 8 8 7 7 7 8 9 9 9 10 10 9 8 6 5 4 5 6 7 8 8 8 9 10 10 11
13 13 13 13 13 13 12 10 10 9 8 8 7 6 8 9 9 9 8 7 6 7 8 8 8 8 9 9 8 6 8 10 11 11 10 9 6 3 3 8 13 14 15 14 14 14 14 13 13 12 11 11 11 11 10 10 10 10 10 9 10 10 11 11 11 11 11 10 10 9 7 6 5 4 4 6 7 8 8 8 9 9 9 9 10
12 12 12 11 11 11 11 9 8 7 7 8 8 8 9 9 7 7 8 7 6 7 8 8 8 7 8 9 7 4 5 7 8 9 7 6 4 2 4 9 13 14 14 13 12 12 12 11 11 10 10 10 9 9 9 10 11 11 12 12 13 13 14 13 12 11 11 10 9 8 7 7 7 6 6 7 8 8 9 9 9 8 7 7 8
11 11 10 9 9 9 10 9 8 8 7 8 9 9 9 8 7 8 10 10 8 8 8 7 7 6 7 7 6 4 3 5 7 7 6 5 4 6 9 12 14 14 14 12 11 11 11 10 9 9 9 9 9 9 9 10 12 12 13 13 13 13 13 12 12 11 11 11 11 11 10 10 10 9 8 8 9 9 9 10 9 8 7 5 3
9 8 8 7 8 8 8 7 8 8 7 7 8 8 8 7 7 8 9 9 9 7 7 6 6 5 5 5 4 3 4 6 8 8 8 8 10 13 16 18 19 18 17 15 13 13 11 10 9 9 9 9 9 9 8 9 11 11 11 12 12 13 13 13 12 12 13 12 12 12 11 11 10 10 9 9 8 9 10 10 9 9 9 6 3
8 6 6 6 8 8 7 5 6 6 6 6 6 6 5 5 5 6 7 8 8 7 5 5 5 4 5 5 3 3 6 9 10 10 11 13 16 18 19 20 20 19 18 16 15 13 12 12 11 11 11 10 9 8 8 9 11 12 12 12 13 13 13 12 12 12 11 11 11 11 11 10 9 7 7 6 6 7 10 9 8 8 10 10 9
8 7 6 6 7 7 6 4 3 4 5 5 4 4 3 3 3 3 4 6 7 7 4 5 6 5 5 5 2 3 6 9 9 10 11 13 14 15 16 16 16 16 15 14 14 13 13 13 13 11 11 10 9 9 9 10 11 12 13 12 11 11 11 11 10 10 10 10 10 10 9 8 7 6 5 5 4 5 7 7 6 7 9 9 9
7 6 5 5 6 6 5 4 3 4 5 4 2 1 1 2 2 2 3 4 5 5 3 4 6 5 5 5 4 3 5 6 7 7 9 10 11 11 12 12 11 11 11 11 12 12 12 12 12 11 10 9 9 9 10 10 10 11 11 10 9 8 8 9 9 9 9 8 7 7 6 6 6 5 5 5 4 4 5 4 5 6 6 7 8
7 5 5 4 5 5 5 5 4 4 5 5 4 2 2 3 4 3 4 4 3 4 3 3 5 5 4 5 4 3 4 5 6 7 8 9 9 9 9 9 9 9 9 9 9 9 9 9 9 9 9 8 8 8 8 9 9 8 8 8 7 5 5 6 6 6 5 5 5 5 6 6 5 4 5 6 4 2 2 2 4 4 4 5 6
6 5 4 4 3 4 5 4 4 4 4 5 4 2 3 4 5 4 4 3 2 3 4 3 4 3 3 4 3 2 3 5 6 7 8 8 8 7 7 7 7 6 6 7 7 6 6 6 6 6 7 7 7 7 7 7 7 6 6 5 4 2 2 3 3 3 3 4 5 5 5 6 5 3 4 6 5 2 1 1 2 2 2 3 3
3 3 2 2 1 2 3 3 4 5 5 5 6 5 4 5 6 5 3 2 0 2 4 4 3 3 3 3 2 1 1 4 5 6 6 6 6 6 5 5 5 5 5 5 4 4 4 4 5 5 5 5 5 5 5 5 5 5 4 4 2 1 1 1 1 1 1 3 3 4 4 5 5 3 3 5 5 4 2 1 1 1 2 2 2
2 1 1 2 1 2 3 4 5 6 6 7 7 7 5 6 7 7 5 3 2 2 3 4 4 4 4 4 3 2 1 3 4 5 5 4 4 4 4 4 4 3 3 3 2 2 2 3 3 4 4 3 3 3 2 2 2 2 2 1 1 1 2 2 2 1 1 1 2 2 3 3 4 3 2 3 3 3 3 2 1 1 1 1 2
1 0 1 1 1 2 3 4 6 7 8 8 8 7 6 5 6 8 7 5 4 4 4 4 4 5 6 6 6 5 4 3 4 4 4 4 3 2 3 3 3 2 1 1 1 1 2 2 2 2 3 2 2 2 1 1 0 1 2 2 3 4 4 4 4 3 3 2 2 2 2 3 3 3 2 3 2 1 1 1 1 1 1 1 1
1 1 1 1 2 2 3 5 6 6 7 8 9 8 7 5 6 8 9 8 7 6 6 6 6 6 7 7 7 7 6 5 5 5 5 4 3 2 2 3 2 2 1 0 0 1 1 1 2 3 3 2 2 2 2 1 1 2 3 4 5 5 5 5 4 4 4 3 3 3 3 3 4 4 3 3 2 2 2 2 2 2 2 2 2
1 1 1 2 2 3 4 5 5 6 6 7 9 9 9 8 7 8 9 10 10 10 9 9 8 8 9 9 9 9 9 8 7 7 7 6 5 3 3 3 2 2 2 2 1 1 1 1 2 3 2 2 2 2 2 2 2 3 3 4 5 6 6 6 5 4 4 4 3 3 3 3 4 3 3 2 2 2 2 2 1 2 3 4 4
3 2 3 4 4 5 5 5 5 5 7 8 8 9 9 8 8 8 9 11 12 12 12 11 11 10 10 11 11 11 11 10 9 8 8 8 7 6 4 4 3 3 3 2 1 2 1 1 2 2 2 2 2 2 3 3 3 4 5 5 4 5 6 6 6 5 5 4 4 3 3 3 3 2 2 2 2 2 2 2 2 3 5 6 4
5 5 6 6 6 6 5 5 6 7 8 8 9 9 8 8 8 8 9 11 12 12 12 13 13 13 12 11 11 12 12 11 10 9 10 10 9 8 6 4 4 4 3 2 2 2 1 2 2 2 2 2 2 2 3 3 4 5 5 5 3 3 4 5 6 6 5 5 4 4 3 2 2 2 2 3 3 3 3 4 4 5 6 5 2
Wind_Direction
260 237 230 230 232 229 221 215 213 213 213 214 214 210 204 198 192 191 189 184 183 188 188 182 179 177 175 175 176 177 181 184 187 194 200 205 204 200 198 193 192 195 196 198 201 205 208 210 212 211 209 213 210 206 209 210 212 212 210 208 208 211 216 205 173 165 192 212 224 226 224 214 207 206 203 199 196 195 199 205 210 212 212 211 212
290 261 240 230 231 231 223 216 212 212 211 211 212 208 202 199 194 190 186 178 176 188 191 182 179 178 175 175 176 178 181 181 185 196 202 201 196 192 189 184 183 186 189 192 192 194 203 204 201 198 194 196 200 200 202 203 206 215 218 218 216 218 224 220 194 177 187 201 214 223 222 216 215 215 213 211 210 209 208 208 211 213 215 215 215
334 313 270 239 229 229 228 219 212 212 212 211 211 207 201 198 194 189 184 175 169 180 188 183 180 183 183 183 184 182 181 180 184 192 194 188 182 181 181 181 187 192 192 192 189 188 194 193 187 187 185 181 187 190 195 198 202 217 226 225 223 224 228 228 216 198 191 195 208 218 218 216 220 222 222 220 220 222 219 216 216 216 218 220 220
352 339 306 274 246 238 237 220 212 214 216 215 212 204 198 194 192 188 182 173 169 178 188 187 185 189 191 190 189 184 180 180 181 183 183 182 181 183 185 192 200 202 196 191 188 184 184 184 183 185 180 174 179 187 193 199 204 215 226 228 228 230 230 230 228 218 203 198 206 216 220 221 224 226 226 223 224 227 227 225 223 224 225 226 226
2 352 333 317 302 282 243 204 206 216 221 217 207 195 190 189 189 187 180 173 173 181 189 191 190 193 191 186 184 183 182 182 181 182 184 187 190 193 197 203 205 204 203 200 195 187 182 182 182 178 167 165 176 196 203 216 224 222 223 226 228 231 232 231 229 226 221 211 206 211 218 222 226 227 226 227 227 228 229 230 229 230 231 231 231
9 354 342 334 304 273 241 202 201 210 213 207 195 189 190 190 189 188 180 173 175 184 189 191 191 189 184 178 177 180 182 183 183 185 190 194 200 207 211 210 206 208 211 209 203 194 187 184 179 167 160 167 177 187 196 213 224 222 219 220 223 229 232 232 227 226 230 225 214 213 215 217 222 224 226 229 231 230 230 232 233 234 235 236 235
8 349 338 336 306 269 253 212 200 205 204 196 190 192 195 195 192 191 185 176 177 185 189 189 188 183 177 173 172 173 176 180 182 183 186 192 200 207 207 202 202 207 207 201 197 193 186 182 173 159 157 165 165 160 162 176 186 186 194 206 215 224 228 226 222 222 225 224 220 219 217 216 218 222 226 229 232 236 236 236 238 237 237 239 240
1 342 326 324 315 289 249 205 198 201 196 185 182 184 189 192 190 190 189 181 179 186 189 185 181 178 176 173 170 169 172 177 181 182 184 186 186 189 189 188 190 190 187 184 181 175 170 166 158 147 144 143 137 132 131 135 141 135 124 158 199 212 217 217 216 218 221 222 223 223 221 217 215 218 225 227 228 234 237 237 242 245 243 243 245
355 330 302 301 302 289 219 191 189 189 183 177 177 181 184 185 183 186 190 185 182 186 186 182 179 178 177 175 170 170 173 177 181 186 192 186 181 187 186 181 178 174 164 152 147 145 142 138 135 132 130 127 121 116 112 112 121 127 116 110 133 168 199 209 213 216 216 216 219 220 219 219 215 214 219 224 228 234 238 239 244 249 250 250 251
15 1 311 273 261 243 209 193 187 184 179 174 172 179 182 179 180 189 193 187 185 187 186 185 185 182 179 177 174 174 178 181 185 191 193 186 180 177 171 169 169 164 151 140 135 133 130 125 121 121 119 115 110 106 104 104 108 118 123 123 125 130 161 188 204 214 215 214 216 217 219 224 224 222 226 232 236 240 242 242 245 250 253 255 258
42 36 23 315 205 203 204 197 190 184 180 177 179 185 186 185 189 193 191 187 187 189 191 191 191 187 182 179 178 180 184 188 190 189 185 181 178 168 160 160 160 155 146 140 134 129 124 118 111 109 106 101 97 93 88 87 93 106 125 148 167 181 189 186 185 195 206 208 208 211 216 225 232 234 238 243 248 251 252 252 251 252 251 252 259
49 47 40 37 158 184 189 193 192 184 179 181 189 189 185 188 194 191 185 185 188 189 190 191 189 186 183 180 179 182 186 188 187 180 171 170 170 164 160 158 153 146 140 136 132 126 117 111 106 105 101 94 93 92 87 81 80 92 112 141 167 180 191 197 195 194 201 200 196 204 216 225 230 234 241 249 253 255 257 255 253 252 251 249 252
48 50 48 45 50 112 159 177 185 182 179 184 191 190 182 180 184 183 177 178 180 180 179 179 177 177 177 176 173 171 172 173 171 165 160 159 158 155 153 150 142 135 130 126 123 119 110 101 99 101 97 91 84 79 80 80 81 89 105 139 169 174 175 183 188 195 209 214 215 228 241 248 251 255 266 268 261 255 253 253 252 252 251 253 258
45 47 51 54 54 67 108 141 157 164 168 172 180 184 178 167 167 170 170 168 166 164 163 162 160 160 162 162 157 152 152 153 155 157 156 154 152 148 143 138 130 125 120 115 113 113 109 101 96 90 81 66 29 357 350 347 9 51 93 172 199 201 187 181 177 178 193 213 232 264 279 276 280 287 285 278 271 264 261 261 260 257 256 261 268
42 44 50 56 61 67 84 105 123 136 144 150 155 158 157 153 150 152 156 157 155 151 149 148 147 144 143 144 142 138 135 137 142 148 152 150 147 143 139 135 130 126 122 119 121 127 124 113 103 99 87 43 347 320 309 300 299 315 312 239 222 219 208 197 189 183 185 206 231 266 278 276 280 278 269 267 270 271 272 273 274 273 273 278 279
42 43 46 52 61 70 81 94 105 113 122 133 138 135 136 141 139 133 134 138 140 139 137 135 134 133 132 133 134 131 128 129 132 136 142 146 146 143 138 131 126 126 129 134 141 144 138 135 143 156 168 178 248 292 297 292 282 278 265 240 234 236 218 196 190 197 212 234 251 270 282 287 290 289 282 276 273 278 283 286 291 300 304 293 287
40 44 45 48 57 67 76 87 94 99 104 111 118 120 122 127 131 127 120 120 121 121 122 120 118 118 119 120 123 125 126 130 133 135 138 145 148 147 141 132 127 130 139 143 147 149 148 155 169 173 177 177 152 270 293 286 278 265 253 252 261 269 264 255 270 284 294 300 302 307 315 319 319 317 312 303 295 296 301 306 314 327 329 309 292
37 41 46 50 57 64 73 83 88 91 93 97 107 117 119 118 122 124 119 115 112 110 111 112 109 106 104 103 106 111 114 123 137 143 145 149 151 149 147 144 143 149 155 149 146 151 155 160 169 170 170 163 82 54 26 68 105 99 77 50 360 324 313 314 314 316 324 330 332 338 338 332 336 340 334 325 320 316 317 320 323 325 324 319 306
40 43 48 55 63 66 71 81 88 90 92 93 100 110 115 116 119 120 115 111 109 105 104 105 103 101 99 99 102 105 107 116 137 150 154 162 164 159 157 154 149 150 153 147 141 144 146 145 143 139 130 109 86 73 68 69 70 68 62 52 39 18 2 356 349 343 346 345 338 341 340 331 331 337 335 333 334 335 334 332 328 324 321 320 315
50 53 55 59 66 70 72 78 84 90 97 103 104 108 114 118 119 117 114 113 113 111 108 106 104 103 104 107 109 108 111 118 130 144 153 158 163 167 168 161 152 147 146 142 138 136 132 129 126 120 114 105 95 86 80 72 62 56 50 49 51 43 28 20 10 4 6 358 339 332 330 327 327 329 330 331 331 331 333 334 334 336 333 327 324
56 58 60 61 64 68 70 75 82 88 98 112 116 113 116 120 121 120 120 119 116 112 111 110 107 104 106 109 108 105 105 108 111 123 145 154 161 173 172 160 152 147 141 136 136 132 127 126 123 117 111 105 97 88 80 73 68 66 64 63 63 56 46 40 32 30 33 31 21 12 358 342 338 336 334 332 330 328 328 330 332 337 341 341 339
57 59 62 63 65 67 69 73 80 86 94 109 115 113 114 118 121 123 124 121 115 110 109 111 109 106 105 106 103 99 97 97 100 106 119 137 150 162 160 150 148 150 144 137 135 134 130 129 123 116 111 106 101 97 90 85 81 77 74 73 68 63 59 54 47 42 40 39 35 32 29 20 10 359 345 337 339 339 335 333 333 336 345 354 357
59 61 64 66 67 69 72 75 81 85 90 100 107 108 108 109 111 116 120 119 114 108 106 108 109 106 102 101 98 96 95 97 101 104 107 115 127 139 145 144 145 152 148 142 141 141 140 139 130 123 125 127 127 127 122 116 105 93 86 81 75 69 64 58 54 50 46 42 37 33 31 26 21 18 13 3 1 355 346 341 342 345 356 11 21
58 61 64 67 68 71 74 78 83 87 91 96 100 101 103 102 101 104 109 111 109 104 99 100 101 99 97 97 96 97 99 99 100 103 105 113 122 130 139 144 147 153 153 149 148 147 146 143 136 135 139 140 138 136 129 119 109 101 94 88 81 74 68 64 61 58 52 49 46 43 38 33 28 26 28 31 35 30 19 17 19 28 47 58 61
60 64 65 67 70 73 76 79 83 87 91 95 97 98 99 101 99 97 99 101 101 101 99 98 97 95 95 95 93 92 93 94 96 98 100 107 116 121 128 135 140 146 149 145 142 140 138 135 130 129 130 130 130 128 122 115 110 105 98 91 83 74 67 62 57 53 51 52 51 49 46 42 39 35 32 34 40 51 70 84 90 88 77 62 57
63 67 68 69 72 75 77 79 82 85 88 91 95 97 99 101 100 100 99 99 99 100 100 100 98 97 96 96 96 94 94 95 96 95 95 99 105 106 107 111 112 117 121 122 123 125 126 126 125 123 121 121 122 120 117 115 114 109 100 91 83 76 68 61 55 53 55 55 53 52 48 44 43 42 38 35 41 60 80 82 76 69 52 28 27
64 65 68 71 74 76 77 79 81 84 86 88 91 93 97 102 102 99 98 99 99 100 100 101 103 103 104 105 108 111 112 113 113 112 111 108 102 100 106 114 119 122 122 122 123 124 123 122 121 119 118 118 118 116 115 116 115 109 102 95 89 83 74 65 59 58 58 56 53 52 48 42 42 45 42 39 46 60 58 27 7 17 26 20 30
69 69 69 71 73 75 78 79 80 82 83 85 87 86 89 95 97 94 94 96 98 100 101 102 104 106 109 115 121 125 124 125 125 123 121 117 113 119 128 130 131 131 128 126 126 125 124 122 119 117 117 116 114 113 113 112 107 103 103 102 97 90 79 67 60 58 58 58 56 53 49 46 44 39 31 27 39 44 29 18 23 37 39 36 44
75 74 73 73 73 75 77 80 81 82 82 84 84 83 84 88 91 91 91 91 93 97 101 103 105 107 111 113 115 115 115 117 119 118 116 115 117 125 129 128 129 128 124 124 126 125 122 118 114 113 113 111 108 105 103 102 101 97 96 98 98 92 81 68 61 63 63 61 56 52 49 47 45 39 32 33 47 53 44 41 44 41 36 40 52
79 78 77 76 76 77 78 81 83 83 84 86 86 85 84 84 86 88 88 88 89 91 92 94 95 95 92 86 81 80 83 95 108 113 115 115 116 119 119 120 122 122 123 126 127 122 116 109 103 101 102 100 96 91 86 86 88 87 87 90 92 88 80 72 71 72 69 59 54 52 50 46 45 45 46 51 59 63 59 54 47 35 28 31 36
90 86 81 79 80 80 80 82 84 84 86 88 89 89 88 85 84 86 88 89 88 85 84 84 82 78 72 65 60 58 61 85 112 122 122 120 118 117 117 117 118 118 123 130 122 111 107 103 96 92 91 88 82 77 74 73 75 77 81 83 83 83 84 84 84 82 72 60 56 58 56 52 51 55 62 69 73 72 67 56 40 29 28 30 30
101 98 92 88 85 83 82 83 83 84 86 88 89 92 94 93 91 91 91 90 86 82 80 79 76 71 65 60 57 55 61 104 138 141 134 129 126 122 119 117 114 112 117 127 111 105 102 99 94 89 85 83 81 78 75 72 69 72 80 87 89 91 91 88 85 80 70 61 60 64 62 57 58 69 79 80 74 63 53 43 37 38 45 47 44
100 100 98 96 92 89 88 88 86 85 85 86 88 91 94 97 100 101 99 94 87 82 77 75 72 68 63 59 57 55 62 104 137 140 136 134 133 129 121 114 108 104 107 122 111 104 100 97 95 92 89 88 86 83 79 77 77 81 90 97 96 91 84 81 79 75 70 67 68 71 70 68 74 89 87 70 53 45 47 49 52 56 57 52 46
94 95 94 94 93 92 91 93 94 91 87 86 89 92 94 97 102 103 100 93 82 74 71 72 71 67 62 61 60 62 74 105 127 133 135 136 133 129 121 113 108 105 109 115 112 107 103 101 99 97 95 93 91 86 83 84 85 89 94 97 95 90 86 84 82 77 72 72 73 73 69 67 68 68 57 48 50 57 62 64 63 59 53 48 43
89 89 88 88 89 91 93 97 98 97 92 88 90 98 103 101 95 89 85 78 70 69 73 78 77 68 62 63 69 78 93 111 122 128 131 128 124 119 110 105 106 107 107 109 109 106 104 102 101 100 97 94 91 87 82 82 87 95 102 103 101 98 94 89 84 80 78 80 80 76 72 68 64 53 51 67 74 72 70 68 62 56 52 46 39
84 85 86 86 88 90 93 97 98 98 98 92 85 100 120 115 93 78 75 71 67 76 88 94 93 82 71 70 77 98 121 130 133 135 136 132 132 137 107 105 110 110 109 108 107 105 103 100 99 99 97 93 91 88 85 89 96 102 103 101 98 96 93 89 87 87 87 88 88 87 86 83 76 70 77 81 74 68 67 64 55 50 46 40 37
76 77 79 82 86 86 84 86 89 93 101 99 92 102 120 120 98 83 84 83 83 94 104 108 106 96 81 73 71 88 136 150 152 152 150 152 169 178 124 114 115 114 110 108 107 106 104 100 100 101 101 102 103 99 97 100 101 99 97 97 96 94 92 90 89 89 88 87 87 85 83 79 74 70 70 69 67 67 61 48 39 37 36 37 44
69 69 72 75 79 77 73 74 77 81 93 102 102 106 113 110 98 93 90 86 88 100 109 113 113 104 88 77 69 68 124 151 149 142 135 132 132 124 118 115 113 112 110 109 108 107 105 105 110 115 117 118 115 106 102 103 102 101 101 100 98 95 93 90 87 84 81 80 79 76 73 70 66 62 62 67 71 66 51 34 27 27 26 26 45
63 63 65 67 68 66 63 65 70 75 87 103 108 108 104 97 94 97 89 76 74 87 103 112 115 111 104 96 85 84 114 124 118 110 107 110 113 113 112 110 107 106 106 106 106 107 107 111 118 122 123 121 115 106 104 106 108 108 108 105 102 101 97 93 89 85 81 79 77 74 70 68 65 63 66 71 71 58 41 30 28 31 32 36 52
57 60 68 70 67 63 60 65 73 75 85 101 109 104 94 83 85 92 86 68 56 58 86 119 126 131 140 136 110 82 100 107 105 103 105 109 110 108 106 103 103 103 105 105 106 105 105 105 105 106 109 114 115 112 109 109 112 114 109 102 100 102 101 98 96 92 89 85 79 75 72 68 64 63 63 63 54 38 28 27 39 55 59 63 70
61 72 83 80 68 58 52 60 80 84 86 95 103 97 82 65 58 72 77 66 48 37 58 124 135 140 149 150 130 82 96 104 106 108 108 107 106 103 101 101 102 104 105 105 102 98 95 94 93 96 105 112 116 113 108 107 111 113 106 96 93 97 101 102 99 93 90 85 79 75 71 61 52 49 44 34 22 15 16 29 65 81 73 71 73
72 89 95 82 65 49 37 38 58 74 71 64 61 67 41 356 350 11 33 48 48 38 53 123 138 137 139 139 129 107 103 107 113 118 114 110 108 105 104 104 105 103 100 96 92 89 87 88 89 93 102 111 115 114 109 105 106 106 102 96 92 92 95 99 97 94 92 86 75 70 63 47 41 46 39 21 360 356 12 44 94 93 74 74 78
66 88 105 96 67 44 40 51 63 67 58 44 31 8 323 314 311 323 348 11 42 60 76 123 141 139 137 140 137 122 111 115 126 131 127 119 114 111 108 105 102 98 93 89 87 85 84 86 90 93 96 102 107 110 107 103 101 99 99 97 95 90 90 96 101 101 94 74 59 57 46 32 32 47 37 23 17 20 32 75 113 106 86 92 90
43 61 99 121 84 37 42 58 53 41 44 43 32 3 304 292 292 304 333 352 39 89 100 130 163 167 154 153 154 137 118 122 127 127 127 125 120 115 112 108 102 97 92 86 84 83 81 82 87 88 89 92 94 94 94 94 93 92 94 95 95 88 88 97 104 100 77 56 51 51 40 29 32 43 30 27 34 49 80 137 138 132 128 131 116
12 30 60 105 82 2 6 20 15 8 8 13 12 358 312 277 270 280 309 323 230 141 125 134 179 204 198 186 186 176 144 145 143 138 136 136 133 127 124 120 112 105 98 89 84 81 73 69 72 77 82 88 89 86 85 86 85 86 89 93 96 101 108 122 129 95 56 44 43 41 32 31 39 51 47 40 44 48 63 112 153 194 201 193 188
333 4 43 66 43 345 342 353 356 348 339 341 349 351 331 292 268 265 277 293 264 206 178 166 183 206 216 219 222 219 195 176 175 171 165 160 153 146 144 140 130 120 110 100 91 79 61 59 67 71 72 75 79 80 81 82 87 96 104 119 176 225 244 256 266 276 295 342 10 14 9 18 29 36 34 35 38 43 57 73 85 112 153 196 235
324 112 90 52 6 344 346 348 344 338 335 333 335 340 338 314 277 264 266 271 273 258 240 221 207 210 217 225 229 229 222 206 198 198 198 196 188 180 177 173 166 161 138 108 95 68 53 55 56 45 35 32 39 52 57 48 9 256 252 256 251 251 254 259 263 266 270 282 308 324 329 341 350 341 336 347 350 337 360 39 49 50 60 45 318
90 105 99 37 12 3 352 344 338 336 337 332 326 326 326 312 284 272 271 273 273 267 256 247 238 230 225 223 227 230 229 224 218 216 219 221 221 214 211 211 216 231 256 301 45 83 76 47 12 3 5 11 22 33 37 23 348 300 281 275 268 264 262 261 261 262 262 267 280 295 307 319 325 320 318 320 306 285 300 329 335 334 337 336 333
289 287 325 358 6 360 348 341 337 339 344 337 323 316 313 303 285 273 273 276 278 273 264 257 250 242 234 229 228 229 228 227 229 230 229 231 233 232 234 244 254 259 275 296 287 160 120 22 347 350 6 21 25 26 22 11 357 332 307 291 276 265 260 257 254 252 249 250 264 282 298 314 324 323 315 302 278 272 303 329 345 354 352 347 340
279 279 308 327 335 337 338 335 330 334 344 345 334 325 321 312 295 283 279 279 279 279 276 268 256 245 239 237 237 234 230 228 233 238 238 236 235 234 239 255 268 268 271 276 232 180 129 37 8 6 15 15 13 13 5 354 343 331 320 309 288 262 248 241 236 235 233 233 240 257 278 304 324 318 293 265 249 256 286 299 311 337 342 341 340
280 278 293 311 320 320 316 311 312 317 323 327 329 332 332 325 315 305 297 291 288 288 288 282 268 254 245 242 244 243 240 237 237 241 241 239 237 236 239 253 271 274 270 258 223 187 110 35 17 18 14 358 350 350 345 337 330 329 326 320 299 258 233 224 221 222 224 223 227 240 258 280 298 290 265 251 247 259 279 292 299 314 324 324 313